Flag for Mauritania Weather past 2 weeks in Nouakchott, Mauritania

Now
88 °F

Passing clouds.


Feels Like: 94 °F
Forecast: 77 / 85 °F
Wind: 9 mph from West

Location: Nouakchott Airport

Current Time: Aug 1, 2015 at 12:33:40 PM

Latest Report: Aug 1, 2015 at 12:00 PM


Visibility: 4 mi

Pressure: 29.89 "Hg

Humidity: 59%

Dew point: 72 °F

Location of NouakchottLocation

Historic Weather in Nouakchott — Graph

°F

Nouakchott temperature yesterday

Maximum temperature yesterday: 86 °F (at 11:30 AM)
Minimum temperature yesterday: 77 °F (at 1:30 AM)
Average temperature yesterday: 81 °F

Past Weeks' High & Low Weather Summary

 TemperatureHumidityPressure
High104 °F (Jul 19, 1:30 PM)89% (Jul 19, 12:30 AM)29.98 "Hg (Jul 19, 12:30 AM)
Low73 °F (Jul 21, 5:00 AM)12% (Jul 19, 1:30 PM)29.77 "Hg (Jul 19, 5:30 PM)
Average80 °F71%29.87 "Hg
* Reported Jul 17 11:00 AM — Aug 1 11:30 AM, Nouakchott, Weather by CustomWeather, © 2015

Note: Actual official high and low records may vary slightly from our data, if they occured in-between our weather recording intervals... More about our weather records

Advertising

Nouakchott weather history for previous 24 hours

 ConditionsComfort  
Time TempWeatherWind HumidityBarometerVisibility
11:30 AM
Sat, Aug 1
88 °FPassing clouds.6 mph55%29.89 "Hg4 mi
11:00 AM86 °FPassing clouds.6 mph59%29.89 "Hg4 mi
10:30 AM86 °FPartly sunny.5 mph59%29.89 "Hg4 mi
10:00 AM82 °FPartly sunny.6 mph66%29.89 "Hg4 mi
9:30 AM81 °FPartly sunny.6 mph70%29.89 "Hg4 mi
9:00 AM82 °FPartly sunny.3 mph70%29.89 "Hg4 mi
8:30 AM81 °FPartly sunny.7 mph74%29.89 "Hg4 mi
8:00 AM79 °FPartly sunny.1 mph79%29.89 "Hg5 mi
7:30 AM79 °FPartly sunny.No wind79%29.86 "Hg5 mi
7:00 AM79 °FPartly sunny.2 mph79%29.86 "Hg5 mi
6:30 AM79 °FPassing clouds.2 mph79%29.86 "Hg5 mi
6:00 AM79 °FPassing clouds.5 mph79%29.83 "Hg5 mi
5:30 AM79 °FPassing clouds.5 mph79%29.86 "Hg5 mi
5:00 AM79 °FPassing clouds.5 mph74%29.83 "Hg5 mi
4:30 AM79 °FPassing clouds.6 mph79%29.83 "Hg5 mi
4:00 AM79 °FPassing clouds.7 mph79%29.83 "Hg5 mi
3:30 AM79 °FPassing clouds.7 mph79%29.83 "Hg5 mi
3:00 AM79 °FPassing clouds.6 mph74%29.83 "Hg5 mi
2:30 AM79 °FPassing clouds.7 mph74%29.86 "Hg5 mi
2:00 AM79 °FPassing clouds.6 mph79%29.86 "Hg5 mi
1:30 AM79 °FPassing clouds.6 mph79%29.86 "Hg5 mi
1:00 AM79 °FPassing clouds.6 mph74%29.86 "Hg5 mi
12:30 AM79 °FPassing clouds.7 mph74%29.86 "Hg5 mi
12:00 AM79 °FClear.8 mph74%29.89 "Hg5 mi
11:30 PM
Fri, Jul 31
79 °FClear.7 mph74%29.86 "Hg5 mi
11:00 PM79 °FPassing clouds.9 mph74%29.86 "Hg5 mi
10:30 PM79 °FPassing clouds.9 mph74%29.86 "Hg5 mi
10:00 PM79 °FPassing clouds.7 mph74%29.86 "Hg5 mi
9:30 PM79 °FClear.8 mph74%29.86 "Hg5 mi
9:00 PM79 °FClear.9 mph74%29.83 "Hg5 mi
8:30 PM81 °FClear.9 mph70%29.83 "Hg5 mi
8:00 PM81 °FClear.13 mph70%29.83 "Hg5 mi
7:30 PM81 °FClear.14 mph70%29.83 "Hg5 mi
7:00 PM82 °FPassing clouds.13 mph66%29.83 "Hg5 mi
6:30 PM84 °FScattered clouds.10 mph62%29.83 "Hg5 mi
6:00 PM84 °FClear.12 mph62%29.83 "Hg5 mi
5:30 PM84 °FClear.13 mph62%29.83 "Hg5 mi
5:00 PM86 °FClear.13 mph59%29.83 "Hg5 mi
4:30 PM86 °FClear.15 mph59%29.83 "Hg5 mi
4:00 PM86 °FClear.14 mph59%29.83 "Hg5 mi
3:30 PM86 °FClear.14 mph55%29.86 "Hg5 mi
3:00 PM86 °FClear.15 mph55%29.86 "Hg5 mi
2:30 PM86 °FClear.15 mph55%29.86 "Hg5 mi
2:00 PM86 °FClear.14 mph55%29.86 "Hg5 mi
1:30 PM86 °FClear.14 mph59%29.89 "Hg5 mi
1:00 PM86 °FClear.14 mph59%29.89 "Hg5 mi
12:30 PM84 °FClear.14 mph62%29.89 "Hg5 mi
12:00 PM86 °FPassing clouds.10 mph55%29.89 "Hg5 mi
Weather by CustomWeather, © 2015

See weather overviewHow to use our weather pages